sat.trackr.live / text

‹ back to catalog

STARLINK-35107

NORAD 65464 · 2025-195G

PAYLOAD ACTIVE UNKNOWN

§ Identity

Operator
Country
US
Launch date
2025-09-03
Launch site
AFETR
Launch vehicle
Mass (kg)
RCS (m²)

Purposes: comms

External: N2YO · Heavens-Above · Gunter

§ Orbital elements

Epoch: 2026-09-20T14:36:43.096032Z

Period
94.01 min
Inclination
53.1582°
Eccentricity
0.0001642
Mean motion
15.31715825 rev/d
Perigee alt
469.6 km
Apogee alt
471.8 km
Semi-major
6,848.8 km
B*
6.8520e-4
RAAN
70.8924°
Arg perigee
92.1342°
Mean anomaly
267.9848°
Rev number
5,986

§ Raw data

STARLINK-351071 65464U 25195G   26263.60883213  .00020968  00000+0  68520-3 0  99952 65464  53.1582  70.8924 0001642  92.1342 267.9848 15.31715825 59865

JSON: /api/v1/satellites/65464 · /tle

For live sub-satellite position, see the globe view (requires WebGL).

§ Visibility from observer

Set your observer location to see the next 7 days of passes ≥ 10°. The values pass through the URL so the page stays shareable.

No JS? Fill the form by hand. The geolocation button needs JavaScript.